[[{"header":{"parameterUnit":"m.s-1","parameterCategory":1,"la1":30.2991,"la2":30.254,"lo1":-89.0895,"lo2":-89.0444,"dy":0.0017,"dx":0.0017,"nx":28,"ny":28,"refTime":"2025-01-08T09:00:00:Z","depth":0,"parameterNumber":2,"parameterNumberName":"U-component_of_WINDS"},"data":[0,0,0,0,0,0,0,0,0,0,0,0,0,0,0,0,0,0,0,0,0,0,0,0,0,0,0,0,0,0,0,0,0,0,0,0,0,0,0,0,0,0,0,0,0,0,0,0,0,0,0,0,0,0,0,0,0,0,0.033,0.0329,0,0.0283,0.0282,0.0281,0.0272,0.0272,0.0273,0.0273,0.0223,0.0222,0.022,0,0,0,0,0,0,0,0,0,0,0,0,0,0.0412,0.041,0.033,0.0329,0.0329,0.0283,0.0282,0.0281,0.0272,0.0272,0.0273,0.0273,0.0224,0.0222,0.022,0,0,0,0,0,0,0,0,0,0,0,0,0,0.0371,0.041,0.033,0.0319,0.0317,0.0283,0.0282,0.0281,0.0272,0.0272,0.0273,0.0273,0.0224,0.0222,0.0219,0.0193,0,0,0.0212,0.0211,0,0,0,0,0,0,0,0,0.0374,0.0368,0.0321,0.0319,0.0318,0.0284,0.0293,0.0252,0.0272,0.0289,0.0273,0.0274,0.0243,0.0239,0.0229,0.0191,0.0189,0.0212,0.021,0.0209,0.0208,0,0,0,0,0,0,0,0.0376,0.037,0.0311,0.032,0.0318,0.0315,0.031,0.0285,0.0263,0.0287,0.0287,0.0281,0.0242,0.0231,0.0227,0.0188,0.0212,0.0209,0.0208,0.0207,0.0126,0.0125,0,0,0,0,0,0,0.0381,0.0373,0.0313,0.031,0.0348,0.0314,0.0308,0.0294,0.0264,0.0259,0.0281,0.0281,0.0235,0.023,0.0226,0.0192,0.0209,0.0207,0.0205,0.0127,0.0126,0.0125,0,0,0,0,0,0,0.0383,0.0376,0.0315,0.0341,0.0333,0.0312,0.0296,0.0293,0.0282,0.0259,0.0255,0.0274,0.0235,0.0229,0.0201,0.0191,0.0206,0.0203,0.0127,0.0126,0.0125,0.0126,0,0,0,0,0,0,0.0386,0.0377,0.0367,0.0341,0.0332,0.0291,0.0295,0.0291,0.0278,0.0277,0.0251,0.0247,0.0235,0.0205,0.0199,0.0187,0.0201,0.0128,0.0127,0.0126,0.0127,0.0125,0.0124,0,0,0,0,0,0.0389,0.0368,0.0366,0.0359,0.0319,0.0291,0.0285,0.0273,0.0277,0.0266,0.0252,0.0248,0.0193,0.0202,0.0195,0.0183,0.0129,0.0127,0.0126,0.0127,0.0125,0.0124,0,0,0,0,0,0,0.0393,0.0365,0.0362,0.0333,0.0314,0.0289,0.0275,0.0271,0.025,0.0251,0.0236,0.023,0.0203,0.019,0.0201,0.0156,0.0161,0.0158,0.0165,0.0163,0.0161,0.0164,0.0199,0,0,0,0,0,0.0391,0.0371,0.0347,0.0324,0.0315,0.0297,0.0284,0.0276,0.0256,0.0248,0.0231,0.0211,0.019,0.0176,0.0155,0.0125,0.0119,0.0113,0.0112,0.0111,0.0108,0.0092,0.0089,0.012,0.012,0.012,0,0,0.0385,0.0368,0.0356,0.0324,0.0309,0.0288,0.029,0.0268,0.0252,0.0244,0.0217,0.0204,0.0181,0.0153,0.0139,0.0141,0.0098,0.0109,0.0108,0.0106,0.009,0.0087,0.0084,0.0119,0.0119,0.012,0,0,0.0365,0.035,0.0328,0.0313,0.029,0.0279,0.0274,0.0249,0.024,0.0213,0.0206,0.0188,0.0151,0.0135,0.0122,0.0097,0.0092,0.009,0.0082,0.0066,0.0063,0.0061,0.0052,0.0048,0.0088,0.0088,0.0088,0,0.0361,0.033,0.0318,0.0296,0.0283,0.0275,0.0254,0.0239,0.021,0.0201,0.0204,0.0158,0.0142,0.0109,0.0103,0.0093,0.0087,0.0093,0.0065,0.0062,0.006,0.0051,0.0047,0.0088,0.0088,0.0088,0.0088,0,0.0326,0.0305,0.029,0.0263,0.0248,0.0226,0.0211,0.0197,0.0191,0.0179,0.0151,0.0132,0.0107,0.0099,0.0092,0.0065,0.0067,0.0068,0.0073,0.0057,0.0048,0.0044,0.0088,0.0088,0.0088,0.0088,0,0,0.0306,0.0273,0.0268,0.0255,0.023,0.0213,0.0191,0.0167,0.0155,0.0136,0.0117,0.0087,0.0087,0.0072,0.0064,0.005,0.0031,0.0053,0.0052,0.0049,0.0,-0.0001,-0.0005,0.0029,0.0028,0.0028,0.0002,0,0.0282,0.0243,0.0232,0.0199,0.0179,0.0172,0.0153,0.0135,0.0124,0.0105,0.0093,0.0071,0.0074,0.0065,0.0051,0.0037,0.0021,0.0038,0.001,0.001,0.0015,-0.0009,-0.0011,-0.0034,-0.0002,-0.0002,-0.0003,0,0.0248,0.0228,0.0193,0.0171,0.0162,0.0145,0.0122,0.0105,0.0085,0.0077,0.0061,0.0055,0.0032,0.0039,0.0007,0.0019,0.0007,-0.0001,-0.0002,-0.0007,0.0002,-0.0015,-0.0042,-0.0046,-0.0008,-0.0008,-0.0008,0,0.0236,0.0201,0.0175,0.0165,0.0138,0.0126,0.0115,0.0095,0.0082,0.0062,0.0053,0.0031,0.0018,0.0001,-0.0011,-0.0005,-0.0042,-0.0036,-0.005,-0.0049,-0.0058,-0.0058,-0.0089,-0.0064,-0.0064,-0.0064,-0.0064,0,0.0209,0.0188,0.0169,0.0154,0.013,0.0118,0.0094,0.0082,0.0065,0.0047,0.004,0.0023,0.0008,-0.0011,-0.0021,-0.0046,-0.0051,-0.0058,-0.0061,-0.0058,-0.0057,-0.0067,-0.0066,-0.0065,-0.0065,-0.0064,-0.0064,0,0.0191,0.0178,0.0149,0.0127,0.0121,0.0104,0.0084,0.0069,0.0058,0.0035,0.0028,0.0011,-0.0012,-0.0025,-0.0054,-0.0061,-0.0089,-0.009,-0.0082,-0.0084,-0.0097,-0.0095,-0.0135,-0.0142,-0.0112,-0.0112,-0.0112,0,0.0174,0.0158,0.0134,0.0121,0.0109,0.0089,0.0075,0.0063,0.0049,0.0026,0.0013,-0.001,-0.0029,-0.0065,-0.0081,-0.0103,-0.0105,-0.0118,-0.0109,-0.0106,-0.0107,-0.0106,-0.0108,-0.012,-0.012,-0.012,-0.012,0,0.0146,0.0141,0.0121,0.0099,0.0083,0.0066,0.0048,0.0038,0.0023,0.0008,-0.0015,-0.003,-0.0059,-0.0082,-0.0105,-0.0117,-0.0122,-0.0123,-0.0127,-0.0125,-0.012,-0.0124,-0.0087,-0.0122,-0.0122,-0.0122,-0.0122,-0.0122,0.0127,0.0112,0.0093,0.0072,0.0057,0.0041,0.0026,0.0013,-0.0007,-0.0031,-0.0037,-0.0061,-0.008,-0.0112,-0.0124,-0.0143,-0.0142,-0.0148,-0.015,-0.0151,-0.0152,-0.0116,-0.0147,-0.0147,-0.0147,-0.0147,-0.0147,0,0.0098,0.0086,0.0066,0.0042,0.0025,0.0024,0.0004,-0.001,-0.0031,-0.0048,-0.0067,-0.0093,-0.0115,-0.0132,-0.0154,-0.0166,-0.0169,-0.0172,-0.0172,-0.0175,-0.0152,-0.0146,-0.017,-0.017,-0.017,-0.017,-0.017,-0.017,0.0081,0.0055,0.0048,0.0015,0.0003,-0.0021,-0.0032,-0.0047,-0.0061,-0.009,-0.0108,-0.0118,-0.0136,-0.0159,-0.0179,-0.0184,-0.0192,-0.0195,-0.02,-0.0179,-0.0176,-0.0174,-0.0169,-0.0196,-0.0196,-0.0221,-0.0221,-0.0221]},{"header":{"parameterUnit":"m.s-1","parameterCategory":1,"la1":30.2991,"la2":30.254,"lo1":-89.0895,"lo2":-89.0444,"dy":0.0017,"dx":0.0017,"nx":28,"ny":28,"refTime":"2025-01-08T09:00:00:Z","depth":0,"parameterNumber":3,"parameterNumberName":"V-component_of_WINDS"},"data":[0,0,0,0,0,0,0,0,0,0,0,0,0,0,0,0,0,0,0,0,0,0,0,0,0,0,0,0,0,0,0,0,0,0,0,0,0,0,0,0,0,0,0,0,0,0,0,0,0,0,0,0,0,0,0,0,0,0,-5.7335,-5.7336,0,-5.7425,-5.7426,-5.7427,-5.7393,-5.7391,-5.7389,-5.7387,-5.7474,-5.7478,-5.7482,0,0,0,0,0,0,0,0,0,0,0,0,0,-5.7129,-5.7133,-5.7335,-5.7336,-5.7338,-5.7425,-5.7426,-5.7427,-5.7393,-5.7391,-5.7388,-5.7386,-5.7473,-5.7478,-5.7483,0,0,0,0,0,0,0,0,0,0,0,0,0,-5.7219,-5.7135,-5.7335,-5.7331,-5.7332,-5.7425,-5.7426,-5.7428,-5.7394,-5.7391,-5.7388,-5.7385,-5.7471,-5.7477,-5.7483,-5.7584,0,0,-5.7503,-5.7505,0,0,0,0,0,0,0,0,-5.7214,-5.7226,-5.7331,-5.7332,-5.7332,-5.7395,-5.7385,-5.748,-5.7395,-5.737,-5.7387,-5.7383,-5.745,-5.7458,-5.7481,-5.7588,-5.7592,-5.7503,-5.7507,-5.751,-5.7512,0,0,0,0,0,0,0,-5.7208,-5.7222,-5.7371,-5.7332,-5.7333,-5.7323,-5.7333,-5.7403,-5.7426,-5.7372,-5.737,-5.7381,-5.745,-5.7475,-5.7483,-5.7593,-5.7503,-5.7509,-5.7513,-5.7515,-5.7787,-5.779,0,0,0,0,0,0,-5.7202,-5.7217,-5.7368,-5.7373,-5.7265,-5.733,-5.734,-5.7378,-5.7425,-5.7429,-5.7384,-5.7379,-5.7466,-5.7475,-5.7486,-5.7607,-5.751,-5.7516,-5.7519,-5.7783,-5.7787,-5.7791,0,0,0,0,0,0,-5.7198,-5.7216,-5.7364,-5.7295,-5.7313,-5.7336,-5.7379,-5.7381,-5.7407,-5.7434,-5.7437,-5.7406,-5.7464,-5.7477,-5.756,-5.761,-5.7519,-5.7524,-5.7779,-5.7785,-5.7789,-5.785,0,0,0,0,0,0,-5.7192,-5.7214,-5.7254,-5.7296,-5.7317,-5.7439,-5.7382,-5.7385,-5.7418,-5.7413,-5.7456,-5.746,-5.7462,-5.7551,-5.7566,-5.7617,-5.7529,-5.7775,-5.7782,-5.7788,-5.7844,-5.7857,-5.7868,0,0,0,0,0,-5.7185,-5.7266,-5.7256,-5.7274,-5.7367,-5.7442,-5.7453,-5.7456,-5.7422,-5.7462,-5.7479,-5.7458,-5.7602,-5.756,-5.7577,-5.763,-5.7772,-5.778,-5.7787,-5.7839,-5.7854,-5.7868,0,0,0,0,0,0,-5.7227,-5.7272,-5.7261,-5.7359,-5.7397,-5.7436,-5.7486,-5.7473,-5.752,-5.7513,-5.7513,-5.7523,-5.7609,-5.7627,-5.758,-5.773,-5.7681,-5.7693,-5.7715,-5.773,-5.7742,-5.7735,-5.7534,0,0,0,0,0,-5.7249,-5.7307,-5.7342,-5.7425,-5.7445,-5.7462,-5.7495,-5.7494,-5.7532,-5.7548,-5.7571,-5.7608,-5.7661,-5.7696,-5.7747,-5.7846,-5.7855,-5.7891,-5.7903,-5.7913,-5.7923,-5.7977,-5.7993,-5.7816,-5.7816,-5.7816,0,0,-5.7292,-5.7324,-5.736,-5.7435,-5.7464,-5.7523,-5.7476,-5.754,-5.7584,-5.7557,-5.7638,-5.7656,-5.7697,-5.7789,-5.7831,-5.7807,-5.7973,-5.7922,-5.793,-5.7935,-5.7986,-5.8003,-5.8018,-5.7822,-5.7821,-5.782,0,0,-5.7403,-5.7433,-5.7506,-5.7537,-5.7582,-5.7593,-5.7611,-5.7652,-5.7664,-5.7745,-5.7726,-5.7777,-5.7868,-5.7899,-5.7926,-5.8048,-5.8031,-5.8064,-5.8127,-5.818,-5.8194,-5.8206,-5.825,-5.8266,-5.8074,-5.8074,-5.8074,0,-5.7451,-5.7542,-5.7544,-5.7611,-5.7644,-5.7624,-5.7697,-5.7726,-5.7785,-5.7808,-5.7781,-5.7896,-5.7922,-5.8021,-5.8051,-5.8074,-5.8093,-5.806,-5.8192,-5.8204,-5.8216,-5.8258,-5.8274,-5.8078,-5.8078,-5.8077,-5.8077,0,-5.7599,-5.7662,-5.7715,-5.7775,-5.7813,-5.7883,-5.7895,-5.7933,-5.7929,-5.7942,-5.8025,-5.8055,-5.8112,-5.8135,-5.813,-5.8234,-5.8218,-5.8191,-5.8143,-5.8237,-5.8276,-5.8292,-5.8084,-5.8082,-5.8081,-5.808,0,0,-5.7739,-5.7801,-5.782,-5.7847,-5.7896,-5.7944,-5.8012,-5.8069,-5.8102,-5.8143,-5.82,-5.8278,-5.8254,-5.8285,-5.8284,-5.833,-5.8425,-5.8298,-5.8299,-5.8321,-5.8541,-5.8561,-5.858,-5.8414,-5.8417,-5.8419,-5.8538,0,-5.7854,-5.7976,-5.7981,-5.8091,-5.8149,-5.8131,-5.819,-5.8225,-5.824,-5.8289,-5.8303,-5.836,-5.8324,-5.8343,-5.8387,-5.8404,-5.8469,-5.8396,-5.8465,-5.8468,-5.8457,-5.86,-5.8622,-5.8732,-5.8553,-5.8555,-5.8557,0,-5.8005,-5.8053,-5.817,-5.8212,-5.8236,-5.8289,-5.8342,-5.839,-5.843,-5.8436,-5.8472,-5.8463,-5.8531,-5.848,-5.8574,-5.8523,-5.8552,-5.8564,-5.8569,-5.8576,-5.8519,-5.8612,-5.8767,-5.8784,-5.8581,-5.858,-5.8578,0,-5.8097,-5.819,-5.8273,-5.8296,-5.8346,-5.8384,-5.8407,-5.8443,-5.8477,-5.8523,-5.8545,-5.8596,-5.8625,-5.8665,-5.867,-5.8632,-5.8764,-5.8713,-5.8771,-5.8771,-5.88,-5.8798,-5.8963,-5.8817,-5.8817,-5.8817,-5.8816,0,-5.8225,-5.8298,-5.8315,-5.8366,-5.8446,-5.845,-5.8528,-5.8547,-5.858,-5.8633,-5.8619,-5.8668,-5.8672,-5.8723,-5.8727,-5.8804,-5.8816,-5.8823,-5.8823,-5.8825,-5.8824,-5.8844,-5.8837,-5.8821,-5.882,-5.8819,-5.8818,0,-5.8342,-5.8356,-5.8445,-5.8486,-5.8497,-5.8555,-5.8588,-5.8636,-5.8649,-5.8716,-5.8732,-5.8751,-5.881,-5.8819,-5.8887,-5.889,-5.8982,-5.8974,-5.897,-5.8969,-5.9026,-5.9021,-5.921,-5.9235,-5.9073,-5.9074,-5.9075,0,-5.8423,-5.8479,-5.8526,-5.8562,-5.8586,-5.8643,-5.8679,-5.8683,-5.872,-5.877,-5.8811,-5.8869,-5.8916,-5.901,-5.9029,-5.9081,-5.9075,-5.9137,-5.9082,-5.9082,-5.9076,-5.9073,-5.9079,-5.9148,-5.915,-5.9151,-5.9152,0,-5.8567,-5.8571,-5.8624,-5.868,-5.8723,-5.8766,-5.8806,-5.8836,-5.8846,-5.8888,-5.8949,-5.8985,-5.9056,-5.9113,-5.9165,-5.9185,-5.9171,-5.917,-5.9186,-5.9188,-5.9184,-5.9188,-5.9,-5.9165,-5.9164,-5.9163,-5.9162,-5.9162,-5.8669,-5.8718,-5.8759,-5.8818,-5.8849,-5.8888,-5.8935,-5.8954,-5.9006,-5.9065,-5.9064,-5.9131,-5.9168,-5.9237,-5.9261,-5.9312,-5.9292,-5.9315,-5.9321,-5.9327,-5.9333,-5.9175,-5.9321,-5.9321,-5.9321,-5.932,-5.932,0,-5.8812,-5.8838,-5.8892,-5.8951,-5.8997,-5.8981,-5.9025,-5.9064,-5.9124,-5.9161,-5.9207,-5.9277,-5.9333,-5.9356,-5.941,-5.9447,-5.9441,-5.9461,-5.9458,-5.9463,-5.9348,-5.9329,-5.9464,-5.9464,-5.9464,-5.9464,-5.9464,-5.9464,-5.8892,-5.8975,-5.8984,-5.9081,-5.9106,-5.9173,-5.92,-5.9235,-5.9264,-5.9344,-5.9391,-5.9406,-5.9437,-5.9494,-5.9543,-5.9548,-5.9569,-5.9592,-5.9594,-5.9486,-5.9471,-5.9458,-5.944,-5.9596,-5.9596,-5.9706,-5.9707,-5.9707]}]]